Skip Page Navigation
NASA JPL Caltech
NASA Logo - Jet Propulsion Laboratory + View the NASA Portal
+ Center for Near-Earth Object Studies
JPL Home Earth Solar System Stars & Galaxies Technology
JPL Solar System Dynamics
BODIES ORBITS EPHEMERIDES TOOLS PHYSICAL DATA DISCOVERY FAQ SITE MAP
IMPORTANT: The SSD Announcement email list is now available. Major changes are coming in the near future, including possible hostname and/or URL changes. To be notified of such changes, subscribe to this email list.

Please visit this page for more details.


JPL Small-Body Database Browser
Search: [ help ]  
324815 (2007 HU67)
Classification: Main-belt Asteroid          SPK-ID: 2324815
Ephemeris | Orbit Diagram | Orbital Elements | Mission Design | Physical Parameters | Discovery Circumstances | Close-Approach Data ]

[ show orbit diagram ]
Orbital Elements at Epoch 2458600.5 (2019-Apr-27.0) TDB
Reference: JPL 13 (heliocentric ecliptic J2000)
 Element Value Uncertainty (1-sigma)   Units 
e .07267878004486814 5.3939e-08  
a 3.093402100648517 4.9076e-08 au
q 2.86857740978515 1.8532e-07 au
i 13.13963074839229 6.0513e-06 deg
node 189.8197065998914 2.4667e-05 deg
peri 288.0599099190434 4.9113e-05 deg
M 154.7853360199402 4.0535e-05 deg
tp 2457746.062492260940
(2016-Dec-23.56249226)
0.00022669 TDB
period 1987.252221014241
5.44
4.7291e-05
1.295e-07
d
yr
n .1811546597825743 4.311e-09 deg/d
Q 3.318226791511884 5.2643e-08 au
  Orbit Determination Parameters
   # obs. used (total)      190  
   data-arc span      8099 days (22.17 yr)  
   first obs. used      1996-03-16  
   last obs. used      2018-05-19  
   planetary ephem.      DE431  
   SB-pert. ephem.      SB431-N16  
   condition code      0  
   norm. resid. RMS      .5857  
   source      ORB  
   producer      Otto Matic  
   solution date      2018-May-31 17:12:34  

Additional Information
 Earth MOID = 1.91709 au 
 Jupiter MOID = 1.79154 au 
 T_jup = 3.180 
[ show covariance matrix ]

Ephemeris | Orbit Diagram | Orbital Elements | Mission Design | Physical Parameters | Discovery Circumstances | Close-Approach Data ]

Physical Parameter Table
Parameter Symbol Value Units Sigma Reference Notes
absolute magnitude H 15.7   n/a MPO434050  

324815 (2007 HU67)          Discovered 2007-Apr-23 by Spacewatch at Kitt Peak
Reference: 20120406/Numbers.arcLast Updated: 2012-04-09

[ show close-approach data ]
Ephemeris | Orbit Diagram | Orbital Elements | Mission Design | Physical Parameters | Discovery Circumstances | Close-Approach Data ]
ABOUT SSD CREDITS/AWARDS PRIVACY/COPYRIGHT GLOSSARY LINKS
FirstGov 2019-Oct-20 20:29 UT
(server date/time)  
NASA Home Page
Site Manager:   Ryan S. Park
Webmaster  Alan B. Chamberlin